Location: Winthrop
(48.4780°N, 120.1850°W)
Time: 01:40:24
(UTC-07:00)

Transit 2A - Pass Details

Date: 21 June 2024
Orbit: 591 x 960 km, 66.7° (Epoch: 23 July)

Event Time Altitude Azimuth Distance (km) Brightness Sun altitude
Rises 22:30:51 0° 324° (NW) 3,432 11.7 -10.5°
Reaches altitude 10° 22:33:51 10° 339° (NNW) 2,553 10.1 -10.7°
Maximum altitude 22:38:29 23° 30° (NNE) 1,881 8.3 -11.2°
Drops below altitude 10° 22:43:17 10° 80° (E) 2,673 8.6 -11.6°
Sets 22:46:30 0° 95° (E) 3,635 9.1 -11.9°
